Orbital Elements at Epoch 2459000.5 (2020-May-31.0) TDB
Reference: JPL 29 (heliocentric ecliptic J2000)
Element | Value | Uncertainty (1-sigma) | Units |
e | .1761836216064059 | 2.4588e-08 | |
a | 2.289648673445289 | 5.7202e-09 | au |
q | 1.886250077951395 | 5.6704e-08 | au |
i | 2.217601821832234 | 2.898e-06 | deg |
node | 73.66300008833318 | 9.4682e-05 | deg |
peri | 8.165679652939421 | 9.5348e-05 | deg |
M | 28.2004514049632 | 1.0701e-05 | deg |
tp | 2458901.369965030869 (2020-Feb-21.86996503) | 3.7611e-05 | TDB |
period | 1265.469551406065 3.46 | 4.7423e-06 1.298e-08 | d yr |
n | .2844793852210854 | 1.0661e-09 | deg/d |
Q | 2.693047268939182 | 6.728e-09 | au |
|
| | Orbit Determination Parameters
Additional Information
|